#timestamp,LO_Frequency,Hit,StdDev 
1597795215.6,286047001.1,N
1597795235.4,286047000.9,N
1597795255.3,286047000.9,N
1597795275.1,286047000.7,N
1597795276.0,286047000.7,N
1597795295.8,286046999.9,N
1597795315.7,286047000.6,N
1597795335.5,286047001.0,N
1597795355.3,286047000.9,N
1597795375.2,286047001.2,N
1597795395.0,286047000.8,N
1597795395.9,286047000.8,N
1597795415.8,286047000.6,N
1597795435.6,286046999.9,N
1597795455.4,286047000.9,N
1597795475.3,286047000.9,N
1597795495.1,286047000.6,N
1597795515.9,286047002.3,N
1597795535.7,286047000.5,N
1597795555.5,286047000.8,N
1597795575.4,286047001.2,N
1597795595.2,286047001.0,N
1597795615.1,286047000.7,N
1597795616.0,286047000.7,N
1597795635.8,286047000.6,N
1597795655.6,286047001.1,N
1597795675.5,286047001.0,N
1597795695.3,286047001.0,N
1597795715.2,286047000.8,N
1597795735.9,286047000.7,N
1597795755.7,286047001.0,N
1597795775.6,286047000.4,N
1597795795.4,286047002.4,Y
1597795815.3,286047000.7,P
1597795835.1,286047001.1,P
1597795836.0,286047001.1,P
1597795855.8,286047000.9,Y
1597795875.7,286046999.1,P
1597795895.5,286047011.9,P
1597795915.3,286047001.2,N
1597795935.2,286046999.0,N
1597795955.0,286046998.6,N
1597795955.9,286046998.6,N
1597795975.8,286046999.1,N
1597795995.6,286046999.5,N
1597796015.4,286046996.7,N
1597796035.3,286046999.2,N
1597796055.1,286046996.9,N
1597796075.9,286046996.8,N
1597796095.7,286046996.8,N
1597796115.5,286046999.1,N
1597796135.4,286046997.1,N
1597796155.2,286046994.9,N
1597796175.0,286046996.2,N
1597796175.9,286046996.2,N
1597796195.8,286046996.3,N
1597796215.6,286046995.7,N
1597796235.5,286046994.9,N
1597796255.3,286046995.1,N
1597796275.1,286046994.9,N
1597796295.9,286046998.0,N
1597796315.7,286046995.1,N
1597796335.5,286046993.4,N
1597796355.4,286046996.3,N
1597796375.2,286046995.5,N
1597796395.1,286046995.6,N
1597796396.0,286046995.6,N
1597796415.8,286046995.8,N
1597796435.6,286046995.6,N
1597796455.5,286046996.2,N
1597796475.3,286046993.3,Y
1597796495.2,286046999.2,P
1597796515.9,286046999.1,N
1597796535.7,286046997.1,N
1597796555.6,286046997.4,N
1597796575.4,286046995.1,Y
1597796595.3,286046999.2,P
1597796615.1,286046999.4,N
1597796616.0,286046999.4,N
1597796635.8,286046999.2,N
1597796655.7,286046996.5,Y
1597796675.5,286047000.4,P
1597796695.4,286047000.7,N
1597796715.2,286046999.8,N
1597796735.0,286047000.4,N
1597796735.9,286047000.4,N
1597796755.8,286047000.3,N
1597796775.6,286046999.0,N
1597796795.5,286046998.8,N
1597796815.3,286046998.4,N
1597796835.1,286047001.2,N
1597796855.9,286047001.2,N
1597796875.7,286047000.6,N
1597796895.5,286047001.2,N
1597796915.4,286047000.4,N
1597796935.2,286047000.6,N
1597796955.1,286047000.9,N
1597796956.0,286047000.9,N
1597796975.8,286046998.1,N
1597796995.6,286047000.9,N
1597797015.5,286047001.1,N
1597797035.3,286046998.3,N
1597797055.2,286047001.1,N
1597797075.9,286046998.2,N
1597797095.7,286046998.4,N
1597797115.6,286047000.7,N
1597797135.4,286047000.3,N
1597797155.2,286046999.3,N
1597797175.1,286046998.5,N
1597797176.0,286046998.5,N
1597797195.8,286047002.7,N
1597797215.7,286047000.8,N
1597797235.5,286046998.9,N
1597797255.3,286046998.5,N
1597797275.2,286047001.1,N
1597797295.0,286047000.8,N
1597797295.9,286047000.8,N
1597797315.8,286047001.1,N
1597797335.6,286047001.1,N
1597797355.4,286047001.0,N
1597797375.3,286046998.3,N
1597797395.1,286046998.2,N
1597797415.9,286047001.0,N
1597797435.7,286047000.3,N
1597797455.5,286047000.1,N
1597797475.4,286047000.2,N
1597797495.2,286047000.2,N
1597797515.1,286047002.2,N
1597797516.0,286047002.2,N
1597797535.8,286047000.1,N
1597797555.6,286047000.1,N
1597797575.5,286047000.2,N
1597797595.3,286046999.9,N
1597797615.1,286047002.2,N
1597797635.9,286047002.3,N
1597797655.7,286047002.5,N
1597797675.6,286047002.1,N
1597797695.4,286046999.8,N
1597797715.2,286047000.1,N
1597797735.1,286047000.3,N
1597797736.0,286047000.3,N
1597797755.8,286047002.8,N
1597797775.6,286046999.9,N
1597797795.5,286047000.2,N
1597797815.3,286047000.2,N
1597797835.2,286047002.8,N
1597797855.9,286047001.1,N
1597797875.7,286047002.8,N
1597797895.6,286047001.3,N
1597797915.4,286047004.3,Y
1597797935.2,286047002.5,P
1597797955.1,286047002.1,N
1597797956.0,286047002.1,N
1597797975.8,286047001.5,N
1597797995.7,286047001.5,N
1597798015.5,286047002.0,Y
1597798035.4,286047000.2,P
1597798055.2,286046999.7,N
1597798075.0,286047002.8,P
1597798075.9,286047002.8,N
1597798095.8,286047002.2,N
1597798115.6,286047001.6,N
1597798135.4,286047002.0,N
1597798155.3,286047002.2,N
1597798175.1,286047001.8,N
1597798195.9,286047001.5,N
1597798215.7,286047004.0,Y
1597798235.5,286047000.3,P
1597798255.4,286047000.4,N
1597798275.2,286047000.1,N
1597798295.1,286047000.4,N
1597798296.0,286047000.4,N
1597798315.8,286047002.4,Y
1597798335.6,286047001.0,P
1597798355.5,286047001.0,P
1597798375.3,286047000.5,N
1597798395.2,286047000.4,N
1597798415.9,286047000.8,N
1597798435.7,286047001.1,Y
1597798455.6,286046998.5,P
1597798475.4,286047000.8,N
1597798495.2,286046998.6,N
1597798515.1,286047001.1,N
1597798516.0,286047001.1,N
1597798535.8,286047000.6,N
1597798555.7,286047000.3,N
1597798575.5,286046998.2,N
1597798595.3,286047000.8,N
1597798615.2,286047001.0,N
1597798635.0,286047000.2,N
1597798635.9,286047000.2,N
1597798655.7,286047000.3,N
1597798675.6,286047002.3,N
1597798695.4,286047002.8,N
1597798715.3,286047000.6,N
1597798735.1,286047000.2,N
1597798736.0,286047000.2,N
1597798755.8,286047000.1,N
1597798775.7,286046999.8,N
1597798795.5,286047000.1,N
